Regional Weather Roundup
Issued by NWS Huntsville, AL

Home | Current Version | Previous Version | Text Only | Print | Product List | Glossary On
Versions: 1 2 3 4 5 6 7 8 9 10 11 12 13 14 15 16 17 18 19 20 21 22 23 24 25 26 27 28 29 30 31 32 33 34 35 36 37 38 39 40 41 42 43 44 45 46 47 48 49 50
000
ASUS44 KHUN 111210
RWRHUN

WEATHER ROUNDUP FOR THE TENNESSEE VALLEY
NATIONAL WEATHER SERVICE HUNTSVILLE AL
600 AM CST WED DEC 11 2019

ALZ001>004-111300-
NORTHWEST ALABAMA

CITY           SKY/WX    TMP DP  RH WIND       PRES   REMARKS
SHOALS AIRPORT FAIR      32  26  78 CALM      30.48R
6HR MIN TEMP:  31; 6HR MAX TEMP:  34;

$$

ALZ005>007-016-111300-
NORTH CENTRAL ALABAMA

CITY           SKY/WX    TMP DP  RH WIND       PRES   REMARKS
DECATUR AP     FAIR      28  25  88 N6        30.46R WCI  22
6HR MIN TEMP:  28; 6HR MAX TEMP:  33;

HUNTSVILLE AP  FAIR      28  24  85 N6        30.45R WCI  22
6HR MIN TEMP:  28; 6HR MAX TEMP:  33;

HUN NWS/UAH      N/A     29  25  87 NE2         N/A
MERIDIANVILLE  CLEAR     28  26  93 N5        30.45R WCI  22
VINEMONT AP    FAIR      26  24  94 CALM      30.45R
$$

ALZ008>010-111300-
NORTHEAST ALABAMA

CITY           SKY/WX    TMP DP  RH WIND       PRES   REMARKS
ALBERTVILLE    FAIR      30  28  93 NE7       30.42R WCI  23
FORT PAYNE     FAIR      29  26  90 CALM      30.42R
SCOTTSBORO AP  FAIR      28  28 100 CALM      30.46R
$$

TNZ076-096-097-111300-
SOUTHEASTERN MIDDLE TENNESSEE

CITY           SKY/WX    TMP DP  RH WIND       PRES   REMARKS
FAYETTEVILLE   CLEAR     27  25  93 NE7       30.44R WCI  19
TULLAHOMA      CLEAR     23  21  93 CALM      30.44R
WINCHESTER     CLEAR     27  23  86 CALM      30.44R
$$

...SURROUNDING SITES...

CITY           SKY/WX    TMP DP  RH WIND       PRES   REMARKS
ATLANTA        CLOUDY    35  30  82 NW12      30.33S WCI  27
ANNISTON       FLURRIES  33  29  85 N9        30.42R WCI  25
BIRMINGHAM     FAIR      31  28  89 N8        30.46R WCI  23
CHATTANOOGA    FAIR      31  25  78 N8        30.44R WCI  23
CORINTH        FAIR      27  27 100 CALM      30.49R
DALTON         FAIR      32  28  86 N10       30.43S WCI  24
GADSDEN        FAIR      30  29  96 N10       30.45R WCI  21
GOLDEN TRNGL   FAIR      29  29 100 NW3       30.50R
HALEYVILLE     FAIR      26  25  96 CALM      30.47R
JACKSON TN     FAIR      22  21  96 S3        30.50R
MEMPHIS        FAIR      28  24  85 CALM      30.49R
NASHVILLE      FAIR      25  21  85 S5        30.48R WCI  19
OXFORD MS      FAIR      25  23  93 CALM      30.51R
ROME           FAIR      32  25  75 N5        30.41R WCI  27
SAVANNAH       CLEAR     25  25 100 CALM      30.48R
SELMER         CLEAR     25  23  93 CALM      30.47R
TUPELO         FAIR      28  25  88 N5        30.50R WCI  23
TUSCALOOSA     FAIR      32  29  88 N5        30.48R WCI  27
$$




USA.gov is the U.S. government's official web portal to all federal, state and local government web resources and services.